MyTimes logo

TIMES

Webb Imagery

20/02/2016
Channel Challenge
450m Swim / 2.0km Run - Local Residents

(Click on competitor name to view personalised results)

Name
Race #
Category
Time
(h:mm:ss)
Avg Speed
km/hr
OAll
Place
Cat
Place
PLANT Luke#177Local Senior Male0:12:09"12.6 " 11
ROWE Mark#167Local Senior Male0:12:44"12.0 " 22
TEMPLAR Jake#696Local Junior Male0:13:20"11.5 " 31
FLEISNER Rob#733Local Male 50+0:13:28"11.4 " 41
BOND Marcus#652Local Male 40-490:13:55"11.0 " 51
LUMSDEN Kai#621Local Junior Male0:13:58"11.0 " 62
VAN AGMEAL Beau#242Local Senior Male0:14:09"10.8 " 73
LITTLE Will#759Local Junior Male0:14:29"10.6 " 83
ONLEY Thomas#214Local Senior Male0:14:33"10.5 " 94
HEISLERS Toby#722Local Junior Male0:14:38"10.5 " 104
HEWETT Dean#241Local Senior Male0:14:42"10.4 " 115
JUDD Alex#218Local Senior Male0:14:51"10.3 " 126
LANDELLS Kara#478Local Senior Female0:14:52"10.3 " 131
TILLEY Justin#122Local Senior Male0:14:57"10.2 " 147
GARRETT Graem#223Local Senior Male0:14:58"10.2 " 158
MAHON Debbi#350Local Senior Female0:15:02"10.2 " 162
HUGHES Xavier#165Local Senior Male0:15:11"10.1 " 179
HETEBRUEG Andre#205Local Senior Male0:15:14"10.0 " 1810
HUMPHRIS Stephen#644Local Male 40-490:15:22"10.0 " 192
HERBERT Duncan#655Local Male 40-490:15:24"9.9 " 203
WHITE Cameron#229Local Senior Male0:15:27"9.9 " 2111
REDPATH Jesse Sexy#125Local Senior Male0:15:33"9.8 " 2212
WILLS Darren#753Local Male 40-490:15:50"9.7 " 234
MATTHEWS Jack#148Local Senior Male0:15:52"9.6 " 2413
WEIR Jake#232Local Senior Male0:16:08"9.5 " 2514
DALLINGER Chris#130Local Senior Male0:16:13"9.4 " 2615
ABLETT Zac#198Local Senior Male0:16:18"9.4 " 2716
MCKENZIE Rodney#207Local Senior Male0:16:19"9.4 " 2817
ROWLINGSON Darcy#228Local Senior Male0:16:21"9.4 " 2918
TURNER Georgia#414Local Senior Female0:16:22"9.3 " 303
HUMPHRY Kirk#726Local Male 40-490:16:24"9.3 " 315
WILKINS Shaun#162Local Senior Male0:16:25"9.3 " 3219
TURNER Peter#715Local Male 50+0:16:26"9.3 " 332
YUSKO Bill#662Local Male 50+0:16:30"9.3 " 343
HUGHES Olivia#375Local Junior Female0:16:31"9.3 " 351
SUTHERLAND Bailey#760Local Junior Male0:16:32"9.3 " 365
VAN DER ZUCK Angus#741Local Junior Male0:16:32"9.3 " 376
TILLEY Derryn#235Local Senior Male0:16:37"9.2 " 3820
BILLINGTON Naomi#471Local Female 40-490:16:40"9.2 " 391
WATSON Russell#716Local Male 40-490:16:41"9.2 " 406
COX Jessica#382Local Senior Female0:16:42"9.2 " 414
PAYNTER Brian#747Local Male 50+0:16:45"9.1 " 424
DUFF Ryley#670Local Junior Male0:16:45"9.1 " 437
MOORE Emma#346Local Female 40-490:16:46"9.1 " 442
NEWSTEAD Laura#411Local Senior Female0:16:49"9.1 " 455
HUGHES Ella#458Local Junior Female0:16:52"9.1 " 462
PEZZIMENTI Declan#239Local Senior Male0:16:54"9.1 " 4721
WILSON-BROWNE Dylan#712Local Junior Male0:16:59"9.0 " 488
TURNER Liam#774Local Junior Male0:17:01"9.0 " 499
VANDERZWET Michael#742Local Male 40-490:17:05"9.0 " 507
HOMER Max#133Local Senior Male0:17:10"8.9 " 5122
HAMILTON James#238Local Senior Male0:17:13"8.9 " 5223
BARRY Bill#108Local Senior Male0:17:13"8.9 " 5324
GUILMARTIN Jack#226Local Senior Male0:17:21"8.8 " 5425
WINSTANLEY Benjamin#200Local Senior Male0:17:25"8.8 " 5526
HUGHES Holly#459Local Junior Female0:17:28"8.8 " 563
LANGFORD Imigen#392Local Junior Female0:17:39"8.7 " 574
BROWN Sean#755Local Male 40-490:17:41"8.7 " 588
INGAMELLS Tom#138Local Senior Male0:17:43"8.6 " 5927
O'HEA Rory#105Local Senior Male0:17:49"8.6 " 6028
MARSHALL Luke#211Local Senior Male0:17:56"8.5 " 6129
WRIGHT Jake#146Local Senior Male0:18:07"8.4 " 6230
THOMPSON Jorgie Mae#354Local Junior Female0:18:08"8.4 " 635
COLLETT Ollie#620Local Junior Male0:18:08"8.4 " 6410
PETTIFER Katie#427Local Senior Female0:18:12"8.4 " 656
STEPHENSON Lachlan#187Local Senior Male0:18:15"8.4 " 6631
COLDORA Melijah#371Local Senior Female0:18:23"8.3 " 677
MOXEY Ashlee#457Local Junior Female0:18:24"8.3 " 686
DAFF Geoff#660Local Male 50+0:18:27"8.3 " 695
HOMER Finn#639Local Junior Male0:18:31"8.3 " 7011
O'DONOHUE Mark#711Local Male 50+0:18:31"8.3 " 716
CHANDLER Mark#727Local Male 40-490:18:32"8.3 " 729
HARDING Justin#171Local Senior Male0:18:41"8.2 " 7332
FISHER Callum#773Local Junior Male0:18:42"8.2 " 7412
SZEITI Justine#439Local Senior Female0:18:44"8.2 " 758
JOHNSTONE Chris#728Local Male 40-490:18:45"8.2 " 7610
BRUHN Rebecca#389Local Senior Female0:18:49"8.1 " 779
MARSHALL Sarah#417Local Female 40-490:18:49"8.1 " 783
BARRY Zak#762Local Junior Male0:18:50"8.1 " 7913
CAMERON Jane#440Local Female 50+0:18:51"8.1 " 801
ASTBURY Vanessa#419Local Female 40-490:18:51"8.1 " 814
FELSTEAD Anthony#231Local Senior Male0:18:54"8.1 " 8233
VAN STEENSEL Kylie#349Local Senior Female0:19:03"8.0 " 8310
TYRRELL Sarah#426Local Senior Female0:19:03"8.0 " 8411
SYME Rosemary#482Local Senior Female0:19:12"8.0 " 8512
BECK Aimee#463Local Senior Female0:19:15"7.9 " 8613
MCDONALD Kellie#378Local Female 40-490:19:16"7.9 " 875
KRAINER Steph#473Local Senior Female0:19:23"7.9 " 8814
SUNDERLAND Greg#771Local Male 40-490:19:24"7.9 " 8911
O'LEARY Frank#204Local Senior Male0:19:31"7.8 " 9034
MC CASKER Jessica#464Local Senior Female0:19:32"7.8 " 9115
JOHNSON Eric#173Local Senior Male0:19:39"7.8 " 9235
DAFF Jessica#462Local Senior Female0:19:42"7.8 " 9316
WILLIAMS Taylah#435Local Junior Female0:19:48"7.7 " 947
ROOKS Bhavani#332Local Female 50+0:19:52"7.7 " 952
MINTER Kris#157Local Senior Male0:19:58"7.7 " 9636
MEADE Dion#199Local Senior Male0:20:00"7.6 " 9737
SCICLUNA Todd#149Local Senior Male0:20:03"7.6 " 9838
JOHNSON Drew#169Local Senior Male0:20:13"7.6 " 9939
ADAMS Simon#725Local Male 50+0:20:18"7.5 " 1007
GRIME Warrick#665Local Male 50+0:20:22"7.5 " 1018
WILLIAMS Peter#729Local Male 40-490:20:24"7.5 " 10212
WARE Matt#739Local Male 40-490:20:32"7.5 " 10313
MERRICK Jennifer#331Local Female 50+0:20:37"7.4 " 1043
HARVEY Brooke#469Local Senior Female0:20:39"7.4 " 10517
HOGAN Krystal#479Local Senior Female0:20:43"7.4 " 10618
TAYLOR Cheryl#472Local Female 50+0:20:50"7.3 " 1074
ONLEY Samantha#437Local Senior Female0:20:57"7.3 " 10819
CALDWELL James#236Local Senior Male0:20:59"7.3 " 10940
VAN DER HEYDEN Natalie#361Local Senior Female0:21:00"7.3 " 11020
RYAN Tori#474Local Senior Female0:21:08"7.2 " 11121
HESS Esther#365Local Senior Female0:21:09"7.2 " 11222
PAYNE Jacqui#425Local Senior Female0:21:12"7.2 " 11323
JOHNSTON Tessa#475Local Senior Female0:21:17"7.2 " 11424
CAMANZUL Maria#433Local Male 50+0:21:21"7.2 " 1159
TURNER Bridget#353Local Senior Female0:21:23"7.2 " 11625
CAMPOGRANDE Lucie#344Local Senior Female0:21:24"7.1 " 11726
ENGEL Hannah#355Local Senior Female0:21:28"7.1 " 11827
HOLLINS Jenny#367Local Female 40-490:21:29"7.1 " 1196
CLEELAND Pip#412Local Female 40-490:21:33"7.1 " 1207
JACKSON Michael#246Local Senior Male0:21:48"7.0 " 12141
RIELLY Debbie#441Local Female 40-490:21:50"7.0 " 1228
LO Eric#137Local Senior Male0:21:50"7.0 " 12342
LONSDALE Sarah#380Local Senior Female0:21:50"7.0 " 12428
WILLIS Eddy#470Local Female 50+0:21:51"7.0 " 1255
WEBBER Simone#455Local Female 50+0:21:55"7.0 " 1266
HORNSBY Tony#244Local Senior Male0:22:16"6.9 " 12743
CHASTON Pete#764Local Male 50+0:22:19"6.9 " 12810
THERIAULT David#736Local Male 50+0:22:22"6.8 " 12911
FLEISNER Paul#734Local Male 50+0:22:23"6.8 " 13012
EISEA Zac#227Local Senior Male0:22:27"6.8 " 13144
BRUSAMARELLO Jo#388Local Female 50+0:23:04"6.6 " 1327
WILLIAMS Elizabeth#430Local Senior Female0:23:06"6.6 " 13329
WRIGHT Phil#738Local Male 50+0:23:24"6.5 " 13413
BOWKER Colin#689Local Male 40-490:23:31"6.5 " 13514
MCKENZIE Lyndal#391Local Female 40-490:23:41"6.5 " 1369
AGNELLO Elizabeth#449Local Senior Female0:23:52"6.4 " 13730
CARTER Verena#443Local Female 40-490:23:53"6.4 " 13810
DALLINGER Brian#757Local Male 50+0:24:45"6.2 " 13914
CLEELAND Mike#714Local Male 50+0:25:02"6.1 " 14015
CAIN Greg#763Local Male 50+0:25:03"6.1 " 14116
BUCHANAN Kathryn#351Local Senior Female0:25:24"6.0 " 14231
BLUNDY Peter#770Local Male 50+0:25:29"6.0 " 14317
KELLY Nikki#373Local Female 40-490:25:41"6.0 " 14411
WALKER Christine#444Local Female 50+0:26:22"5.8 " 1458
CHAMBERS Ron#611Local Male 50+0:27:53"5.5 " 14618
O'NEIL Kielan#758Local Junior Male0:28:04"5.5 " 14714
CURTIS Susan#446Local Female 40-490:28:07"5.4 " 14812
AXNICK Doug#707Local Male 50+0:28:37"5.3 " 14919
FALLAW Jon#629Local Male 50+0:29:52"5.1 " 15020
HAYWARD Bec#327Local Female 50+0:31:22 4.9 1519